Voltar ao catálogo

Ten-Koh

TEN-KOH

AtivoRádio AmadorSSO
NORAD 43677·PAYLOAD·🇯🇵 Japan

Lançado Oct 29, 2018 de Tanegashima Space Center

Loading…

Próximas Passagens (próximas 24 horas)

TLE

AtualizadoSource: AMSAT

Época: Sep 13, 2026, 19:05 UTC

1 43677U 18084G   26256.79556891  .00001092  00000-0  85491-4 0  9992
2 43677  98.0738  92.9082 0009469 170.8287 189.3111 15.03243105429479

Acompanhe Ten-Koh em tempo real com AllMySat

Download on the App Store